Theta_e
313 312 313 313 313 316 318 320 321 319 322 323 319 319 317 316 316 317 320 318 316 316 316 316 317 316 317 317 317 318 317 320 321 320 321 321 320 319 320 318 318 319 317 318 323 328 329 331 331 331 331 331 332 333 334 335 334 333 334 334 333 333 333 332 330 331 330 327 324 322 320 319 318 318 319 318 318 318 318 318 318 319 322 326 330 333 334 334 334 333 331 328 325 324 323 323 324
312 313 313 314 317 321 320 319 324 326 325 320 316 318 316 316 317 319 322 319 318 317 316 317 317 317 317 318 317 318 318 318 319 319 319 319 320 319 319 319 318 318 318 317 321 326 328 329 330 330 330 330 330 330 331 332 331 331 332 333 333 333 333 331 330 331 330 327 324 322 320 319 318 319 319 318 318 319 319 318 318 317 321 326 328 331 333 333 334 334 333 330 327 324 322 322 323
313 316 315 317 321 320 322 320 323 329 325 318 318 321 316 316 321 321 319 317 316 316 317 317 317 318 318 318 318 318 319 318 318 319 319 319 319 318 317 318 318 318 318 317 319 323 327 328 329 330 329 330 329 329 329 329 330 331 331 331 332 332 332 330 330 331 330 327 324 322 320 319 319 319 319 319 319 320 320 319 318 317 320 324 326 330 332 333 335 334 334 331 328 324 320 320 321
315 318 318 319 320 318 331 330 327 331 323 319 318 321 321 319 321 317 315 315 316 317 317 317 318 318 318 319 319 318 318 318 319 319 319 318 317 316 316 316 317 318 318 318 318 320 324 327 328 329 329 330 330 329 329 329 330 331 330 330 331 331 331 330 329 330 331 328 324 323 321 319 319 320 319 319 320 321 321 319 318 317 318 322 324 329 333 334 334 334 333 332 329 325 320 318 318
317 319 319 320 321 318 329 328 326 329 320 322 318 316 323 322 320 313 313 317 316 318 318 317 318 318 318 318 318 318 318 318 319 319 319 317 316 315 315 315 316 317 318 319 318 319 322 325 327 328 329 329 330 330 330 330 330 330 330 330 330 330 331 331 329 329 331 329 326 324 321 320 319 320 320 319 321 321 321 319 319 317 317 322 325 328 333 334 334 334 333 333 330 327 324 320 319
318 319 319 318 320 316 322 323 321 323 319 322 319 316 320 316 316 312 313 317 317 318 318 318 318 317 317 317 318 318 318 318 319 319 319 317 316 315 315 314 315 316 317 318 319 319 319 322 325 326 328 328 329 329 330 330 330 330 329 329 329 330 330 330 329 328 329 330 328 325 322 320 320 320 320 319 321 321 321 319 318 317 316 322 327 329 332 333 334 333 332 333 331 330 328 325 322
319 319 319 320 320 317 326 328 322 322 317 316 317 319 317 312 311 311 314 317 317 317 317 318 318 317 317 316 317 318 318 318 318 319 318 318 316 315 315 314 315 315 315 317 318 318 319 320 322 324 326 327 328 328 328 329 330 330 329 329 329 329 330 329 328 328 329 329 329 328 325 322 320 320 319 320 322 323 322 320 318 318 317 320 326 329 331 333 332 331 330 330 329 327 326 323 319
319 318 318 324 326 324 331 327 322 323 315 310 313 316 314 312 311 311 315 316 317 316 316 318 316 317 317 316 317 317 318 318 318 319 318 317 316 316 315 314 315 315 315 315 317 319 319 319 320 322 324 326 327 327 326 327 329 330 329 329 329 329 329 328 328 328 328 329 329 329 328 325 321 320 320 322 324 325 324 321 319 319 319 321 325 328 329 331 330 328 326 323 321 318 316 314 312
317 318 317 324 330 328 330 322 319 319 317 315 312 314 313 313 313 313 315 315 316 315 315 317 316 316 316 315 317 317 317 317 316 317 318 317 316 316 315 315 315 315 315 315 315 317 318 319 319 320 322 324 326 326 326 326 328 329 329 330 330 330 330 329 328 328 326 328 330 330 330 327 323 324 325 326 328 328 326 323 320 320 322 324 325 326 327 328 326 324 319 315 312 310 310 310 309
315 318 316 323 329 326 324 320 319 318 319 317 312 314 313 313 313 313 314 314 314 314 315 316 316 316 316 316 317 316 316 316 315 315 316 316 316 316 316 316 315 316 316 315 314 315 317 318 319 319 320 321 324 325 326 327 327 328 328 329 330 330 330 328 328 329 326 327 329 329 329 328 326 328 329 329 329 329 329 326 324 322 322 322 323 324 324 323 320 317 313 311 309 309 309 307 306
316 317 316 326 330 323 322 321 323 324 322 315 312 313 313 313 314 313 314 313 314 314 314 316 316 316 315 315 316 316 315 315 315 315 315 315 316 316 316 316 315 316 316 316 315 314 315 316 318 319 319 320 322 324 325 327 327 327 327 328 329 330 329 327 328 329 326 326 328 327 328 328 327 328 329 329 329 329 330 329 328 327 323 320 320 320 320 319 316 313 310 309 308 309 309 306 304
317 319 326 334 326 321 322 322 324 328 328 320 315 314 313 313 314 314 313 314 314 314 315 315 316 316 315 315 315 315 315 315 315 315 314 314 315 316 316 316 316 315 315 316 315 314 314 315 317 318 319 320 321 323 325 327 327 327 327 328 329 329 327 326 327 327 326 326 326 326 327 327 328 327 328 329 329 329 329 330 330 330 326 323 321 321 322 321 318 313 309 307 307 308 308 305 304
317 318 330 327 317 320 321 319 321 325 327 319 314 314 314 313 313 314 313 314 313 314 316 315 316 316 315 315 315 315 315 314 314 314 314 314 314 316 316 316 316 315 315 316 316 315 314 315 316 317 318 319 321 322 323 326 327 326 327 327 328 328 327 326 326 325 326 327 326 326 326 327 327 327 328 328 329 328 327 329 331 331 330 328 326 325 325 324 321 314 309 307 306 307 307 305 304
316 316 325 321 313 320 320 317 319 321 320 316 314 313 315 313 314 314 313 315 314 314 315 316 316 316 315 314 315 315 314 314 314 314 314 314 314 315 316 317 316 315 315 315 316 316 315 315 315 315 316 318 319 321 322 324 325 325 326 327 327 327 326 326 325 325 326 326 326 326 326 327 327 326 327 328 328 328 327 327 329 330 331 330 329 329 327 325 323 316 311 308 305 305 306 305 304
315 313 321 322 317 318 317 317 322 323 318 315 315 313 315 314 314 314 313 315 315 315 315 315 315 315 315 314 315 314 313 314 314 314 314 314 314 315 315 316 317 316 315 315 316 316 316 315 315 315 315 316 317 319 321 322 323 324 325 326 327 327 327 326 325 325 326 326 325 327 326 325 327 326 327 330 328 327 327 327 328 329 330 331 331 330 328 326 324 318 312 309 306 305 305 305 304
315 313 320 322 316 316 314 316 320 323 317 313 313 313 315 314 314 315 314 314 314 315 315 315 315 315 315 314 314 313 314 314 314 314 314 314 314 315 315 315 316 316 316 315 316 316 316 316 315 315 315 315 316 317 319 321 322 323 325 326 326 327 327 326 326 325 325 325 325 326 326 325 326 325 326 328 327 326 327 326 327 329 328 329 330 330 329 327 325 320 314 310 307 305 305 304 304
313 318 326 319 315 316 315 319 320 320 319 314 313 313 315 315 314 315 315 315 314 315 315 315 315 315 314 314 313 313 314 314 314 314 314 314 314 314 315 315 315 316 316 315 315 316 316 316 316 316 315 316 316 317 318 320 322 323 325 325 325 327 327 326 327 327 326 325 325 325 326 326 325 326 326 326 327 327 326 325 325 327 327 327 328 329 329 328 326 322 316 312 308 306 305 304 304
317 327 326 314 315 316 315 321 318 315 318 314 313 313 314 315 315 314 315 315 314 314 314 315 315 314 314 313 313 314 314 314 314 314 314 314 314 314 314 314 315 315 316 316 316 316 316 316 316 316 316 316 316 317 318 319 321 323 324 325 325 325 326 327 327 327 326 326 325 324 325 325 325 326 326 325 326 326 326 327 325 325 326 326 326 327 327 328 327 322 317 313 309 308 306 304 304
319 325 321 317 321 315 312 317 313 313 315 313 314 313 313 315 314 314 314 315 314 314 314 314 314 314 313 314 314 314 314 314 314 314 314 314 314 314 314 314 314 315 315 315 315 315 315 316 316 316 316 316 316 317 318 319 320 322 324 325 327 327 327 327 327 327 327 328 327 326 326 324 324 326 327 327 326 327 328 326 324 324 325 325 325 326 326 327 327 321 317 315 310 309 308 305 304
315 319 322 323 319 312 311 313 313 314 314 313 314 313 312 314 313 313 313 313 312 313 314 314 313 313 313 314 314 314 314 314 314 314 314 314 314 314 314 314 314 314 314 314 315 315 315 315 315 315 316 316 317 317 317 318 319 321 323 325 328 330 328 326 327 326 326 329 328 326 326 325 324 324 325 326 326 328 329 328 327 325 324 326 326 326 326 326 326 322 318 318 312 311 310 306 304
314 318 323 319 311 313 314 314 314 314 314 314 313 312 313 313 313 313 312 313 313 312 313 312 312 313 313 313 313 314 314 314 314 314 314 314 314 313 313 314 314 314 314 314 314 314 314 314 314 315 315 316 316 317 317 318 319 320 322 323 325 327 329 327 328 329 328 328 328 327 325 325 325 325 324 323 324 325 327 328 327 326 324 326 326 326 326 325 326 323 319 320 314 312 312 309 306
315 316 316 313 310 315 316 314 315 314 313 313 312 313 313 312 312 312 312 313 313 311 311 312 312 312 313 313 313 313 313 314 314 314 314 314 314 313 313 313 313 313 313 314 314 314 314 313 314 314 315 316 316 316 316 318 318 320 321 323 324 323 324 325 327 332 333 330 332 329 324 325 325 325 324 322 324 322 324 326 324 329 330 324 323 325 325 325 325 323 322 321 316 313 313 312 309
317 316 312 313 313 314 315 314 314 313 312 312 312 312 312 311 312 312 311 311 311 311 311 311 311 312 312 312 313 313 314 314 314 314 315 314 313 314 313 313 313 313 313 314 314 314 314 313 313 314 315 316 316 315 316 317 318 320 320 322 323 323 326 327 324 328 333 332 331 328 326 330 330 328 325 323 326 324 328 331 325 326 327 323 323 324 325 326 325 325 324 321 318 315 314 314 312
317 318 313 313 313 313 314 313 313 312 312 312 312 311 311 312 312 311 310 309 310 310 310 311 311 311 311 312 312 312 313 313 313 314 314 313 313 313 313 313 313 313 313 313 314 314 314 314 313 314 315 316 316 316 316 317 318 319 321 322 322 325 333 334 325 324 331 335 333 332 333 334 334 330 324 322 326 326 328 331 324 321 323 325 329 328 325 324 324 326 325 321 321 320 316 315 314
317 318 313 313 313 313 313 312 313 313 312 313 312 311 311 311 311 310 309 309 309 309 310 310 310 311 312 312 312 312 312 312 312 312 312 312 312 311 311 312 312 312 313 313 313 313 314 314 314 314 315 316 316 316 316 317 319 320 321 322 322 324 327 330 330 328 329 331 329 329 330 332 334 331 326 326 328 327 325 325 324 322 325 326 327 328 324 322 324 324 324 323 323 322 319 316 315
314 314 312 312 312 312 313 313 313 313 312 312 311 311 311 310 311 310 308 308 309 309 310 311 311 312 313 312 312 312 312 312 312 311 311 311 311 311 311 311 312 312 312 313 313 313 314 314 315 315 316 317 316 317 317 318 319 320 322 323 325 327 325 326 333 333 330 331 329 327 325 326 331 332 331 331 329 326 322 323 328 327 326 327 325 323 322 322 325 325 325 325 323 323 322 319 317
312 311 311 312 312 312 312 313 312 312 312 311 312 313 310 309 312 312 308 308 309 310 311 311 311 312 312 312 311 312 311 312 311 310 310 310 310 311 311 311 311 312 312 312 312 313 313 314 315 316 316 316 316 317 317 318 319 320 322 323 326 329 326 325 327 329 329 331 331 330 329 327 329 331 331 330 328 327 323 323 329 327 324 324 322 323 325 326 327 327 326 324 323 324 323 320 319
311 311 313 313 311 312 312 311 311 312 312 311 311 311 309 309 312 311 308 308 309 311 312 311 311 311 310 311 311 311 311 311 310 309 310 310 311 310 311 311 311 312 312 312 312 313 313 313 315 316 316 316 316 317 317 318 319 321 323 324 326 327 324 324 325 325 325 326 327 326 328 329 330 331 331 329 328 329 328 326 327 325 321 321 321 323 326 326 325 325 324 323 323 323 322 322 322
312 311 314 316 314 315 312 309 309 311 313 311 310 314 316 313 310 309 308 309 310 311 311 310 310 309 309 310 310 310 310 310 309 309 310 310 310 310 310 311 311 312 312 312 313 312 313 313 314 315 317 317 317 318 318 319 320 321 323 324 325 325 324 325 325 325 324 324 325 325 324 326 327 328 329 328 327 328 328 329 329 326 324 325 325 322 321 322 322 322 323 324 324 323 322 324 323
313 310 312 316 318 319 312 308 310 310 311 310 311 318 322 313 307 308 309 308 309 310 309 308 308 308 308 309 309 310 309 308 308 308 309 309 309 310 310 311 312 313 313 313 313 313 314 314 314 315 316 317 318 319 320 320 321 323 324 324 325 325 326 326 326 325 325 325 325 325 325 326 327 327 328 328 328 327 326 327 327 326 327 328 327 323 322 324 323 323 323 324 326 325 322 321 321
315 310 314 318 317 323 316 307 311 313 311 310 312 320 322 313 306 308 310 309 310 309 307 306 306 307 307 307 308 309 308 307 307 307 308 308 309 310 310 311 312 313 314 314 314 315 316 316 317 317 317 318 318 320 321 321 323 323 324 324 325 325 325 325 327 326 324 326 327 326 327 328 328 327 327 328 327 326 326 326 326 326 326 326 326 324 324 326 325 325 324 324 325 324 322 320 320
320 314 322 322 315 326 322 307 308 313 310 309 312 319 321 312 306 308 309 309 310 308 306 305 305 306 306 306 307 307 306 306 307 307 308 308 309 310 310 311 312 312 313 314 315 316 317 317 318 318 318 318 319 319 321 321 322 323 324 324 324 324 323 322 325 326 325 326 327 326 327 327 327 326 327 327 326 325 325 326 326 327 326 326 326 326 326 326 325 325 326 324 322 321 321 321 320
322 316 323 325 317 321 320 310 307 309 309 310 312 317 319 312 304 308 309 308 310 307 305 304 304 305 305 305 305 305 305 306 306 307 307 308 309 309 309 310 310 311 311 312 313 315 315 316 316 316 316 317 318 319 319 320 321 322 322 322 323 322 323 322 323 324 324 325 326 325 325 325 325 325 327 326 325 325 325 326 326 325 326 325 326 326 326 326 325 324 323 322 321 321 321 320 320
325 316 317 322 318 316 318 316 310 308 311 313 313 314 317 312 304 306 308 307 309 306 304 304 303 304 304 304 304 304 305 306 306 307 307 308 308 309 309 309 309 309 310 310 311 312 313 314 314 314 315 316 317 318 319 319 320 322 321 321 322 322 323 323 322 323 323 322 322 323 323 324 324 323 324 324 323 324 324 324 324 323 323 322 323 324 324 324 323 323 321 321 320 321 321 321 321
329 321 319 321 317 315 317 318 312 311 314 316 315 315 316 314 307 304 305 306 307 304 302 303 302 303 303 303 304 305 306 306 306 307 307 308 308 308 307 308 308 308 308 309 310 310 311 312 311 311 313 315 315 316 317 317 317 318 319 320 321 320 320 321 322 321 321 321 321 321 322 322 322 321 322 322 322 322 322 322 322 322 322 322 323 323 322 322 322 322 322 321 321 321 321 322 322
326 326 325 324 320 317 317 317 312 310 314 317 316 316 316 315 311 304 303 304 304 302 301 301 301 302 303 303 304 305 305 306 306 306 307 307 307 307 307 307 307 307 307 308 308 309 309 310 310 310 313 315 315 316 316 315 315 316 317 318 318 318 318 319 320 320 319 320 321 320 321 321 321 320 320 320 320 320 320 321 321 321 321 321 322 322 321 321 321 321 321 321 321 320 320 320 320
319 321 323 322 320 318 317 316 311 307 313 317 314 315 315 314 311 303 301 302 301 300 300 300 300 301 302 303 303 303 304 305 305 305 306 306 306 306 306 306 306 306 307 307 307 307 307 308 308 309 311 313 313 314 314 314 314 315 315 314 314 315 315 314 315 316 317 318 318 317 318 319 319 319 319 319 319 318 318 318 319 319 319 319 320 320 320 319 319 320 320 319 319 318 318 318 318
315 317 318 318 318 318 314 313 311 307 312 317 313 314 316 314 309 302 300 302 300 299 299 299 299 300 300 301 301 302 303 303 304 305 305 305 306 306 306 306 306 306 306 306 306 306 306 307 307 307 308 308 308 308 309 309 309 310 310 309 310 312 312 312 310 311 313 313 313 312 313 314 315 316 316 316 315 315 315 315 315 316 317 317 317 317 316 317 317 317 317 317 317 317 317 317 317
314 315 316 316 315 316 315 312 311 309 311 317 315 313 316 313 304 300 299 300 299 299 299 298 299 299 299 300 300 301 302 303 304 304 305 305 305 305 305 305 305 305 305 305 305 305 305 305 305 306 306 306 306 306 306 306 306 307 307 307 308 308 308 309 308 307 308 309 309 309 309 310 310 310 310 310 310 310 310 310 310 311 312 313 313 312 312 312 313 313 313 312 312 313 313 314 314
313 315 315 316 314 316 320 315 312 311 310 314 315 313 315 311 303 301 299 298 298 298 299 298 298 299 299 299 300 301 302 303 304 304 304 305 305 305 304 305 305 305 305 305 305 305 305 305 305 305 305 305 305 305 305 305 305 306 306 306 306 306 305 305 305 305 305 305 305 306 306 306 306 306 306 306 306 306 306 306 306 306 307 307 307 307 307 308 308 308 308 308 308 308 309 310 310
315 315 314 315 316 317 320 316 313 314 311 311 312 315 320 315 309 307 301 299 299 298 298 299 298 299 299 300 300 301 302 303 303 304 304 304 304 304 304 304 304 304 304 304 304 304 304 304 304 304 304 304 304 304 304 304 304 305 305 305 305 305 304 304 304 304 303 304 304 304 304 304 304 304 304 304 304 304 304 304 304 304 304 304 304 304 304 304 304 304 304 304 305 305 305 305 306
318 318 315 315 317 318 318 315 314 318 318 313 311 318 327 321 315 310 303 301 301 298 298 298 299 299 299 300 300 301 302 302 303 303 303 304 304 304 304 304 304 304 304 304 303 303 303 303 303 304 304 304 304 303 303 303 304 304 304 304 304 304 304 303 303 302 302 302 302 302 302 302 302 302 302 302 302 302 302 302 302 302 302 302 302 302 302 302 302 302 302 302 302 303 303 303 303
319 319 316 313 314 317 318 316 317 321 321 312 309 317 327 325 321 312 303 303 302 299 298 298 299 299 299 300 300 301 302 302 303 303 303 303 303 303 303 303 303 303 303 303 303 303 303 303 303 303 303 303 303 302 303 303 303 303 303 303 303 303 303 302 301 301 300 300 300 300 300 300 300 300 300 300 300 300 300 300 300 300 300 300 300 300 300 300 301 300 300 301 301 301 301 301 301
323 317 315 315 314 317 318 317 318 321 318 313 312 316 320 323 320 308 303 306 304 301 300 298 299 299 300 300 300 301 302 302 303 303 303 303 303 303 303 303 303 303 303 302 302 302 302 302 302 302 302 302 302 302 302 302 302 302 302 302 302 301 301 300 299 298 298 298 298 298 298 298 297 297 297 297 297 297 297 297 296 296 297 297 297 297 297 297 297 297 298 298 298 299 299 299 300
320 311 311 315 314 316 317 316 317 315 313 317 318 314 315 321 318 306 302 307 308 305 303 300 299 299 300 300 300 301 302 302 303 303 303 303 303 303 303 303 302 302 302 302 302 302 301 301 301 301 302 301 301 301 301 301 301 301 301 301 301 300 299 298 297 297 296 296 296 296 296 295 295 295 295 295 295 294 294 294 294 294 294 294 293 293 293 293 293 293 294 294 294 295 296 297 297
312 306 310 313 312 313 314 315 317 314 313 320 321 314 316 323 322 311 307 311 311 307 303 300 299 300 300 300 301 301 302 302 303 303 303 303 303 303 302 302 302 302 302 302 301 301 301 301 301 301 301 301 301 300 300 300 300 300 300 300 299 298 297 296 296 295 295 295 295 295 294 294 294 294 293 293 293 293 292 292 292 292 292 292 292 291 291 291 291 291 291 290 290 291 291 292 293
306 310 315 315 315 316 316 316 315 314 318 321 318 315 315 319 323 317 312 314 312 307 304 301 298 299 300 300 301 301 301 302 302 302 302 303 302 302 302 302 302 302 302 301 301 301 301 300 300 301 300 300 300 299 299 299 299 299 298 298 298 297 295 295 295 295 294 294 295 294 293 293 293 293 292 292 292 292 291 291 291 291 291 291 291 291 290 290 290 290 290 289 289 289 289 289 289
308 319 319 317 319 316 317 319 316 317 323 319 311 311 313 316 324 320 314 313 310 306 306 302 299 299 300 300 301 301 301 301 302 302 302 302 302 302 302 302 302 302 301 301 301 301 300 300 300 300 300 299 299 298 298 298 298 298 297 296 296 295 295 295 295 295 294 294 294 293 293 293 293 292 292 292 292 292 291 291 291 291 291 291 290 290 290 290 290 289 289 289 289 289 289 289 289
312 320 318 320 322 317 319 321 317 319 320 312 307 310 312 314 320 318 315 314 308 303 303 301 299 300 300 301 301 300 301 301 302 302 302 302 302 302 302 302 301 301 301 301 301 300 300 300 299 299 299 298 298 297 297 297 297 297 296 296 296 295 295 295 295 295 294 294 293 293 293 293 293 292 292 292 292 291 291 291 291 291 291 290 290 290 290 290 290 289 289 289 289 289 289 289 289
312 316 317 321 322 322 327 322 316 318 316 308 307 311 313 315 315 313 312 310 303 300 301 301 300 301 301 301 301 300 301 301 302 302 302 302 302 302 302 301 301 301 301 301 300 300 300 299 299 298 298 297 297 297 296 296 297 296 295 295 295 295 295 295 295 294 294 293 293 293 293 292 292 292 292 291 291 291 290 290 290 290 290 290 290 290 290 290 290 290 289 289 289 289 289 289 289
312 315 315 319 323 327 329 325 323 323 317 309 307 312 318 319 314 307 303 300 298 299 301 300 300 300 301 301 300 300 301 301 302 302 302 302 301 302 301 301 301 301 301 300 300 299 299 299 298 298 297 297 296 296 296 296 296 295 294 295 295 295 295 295 294 294 293 293 293 293 293 293 293 292 292 291 291 291 291 290 290 290 290 290 290 290 290 289 289 289 289 289 289 289 289 289 289
312 312 313 317 321 323 319 316 317 318 316 313 310 313 318 315 309 300 297 297 296 298 299 299 300 300 300 300 299 300 301 301 301 301 301 301 301 301 301 301 301 300 300 300 299 299 298 298 297 297 296 296 295 295 295 295 294 294 294 294 294 294 294 294 293 293 293 293 293 293 293 292 292 292 292 292 291 291 291 291 291 290 290 290 290 289 289 289 289 289 289 288 288 288 288 288 288
312 311 316 316 314 319 319 311 307 309 315 316 312 315 315 311 309 303 300 301 299 297 297 298 299 300 299 299 299 300 301 301 301 301 301 301 301 301 301 301 300 300 300 299 299 298 297 297 297 296 296 295 295 294 294 294 293 293 293 293 293 292 292 292 292 292 292 292 291 291 291 291 291 291 291 290 290 290 290 290 290 290 290 289 289 289 289 289 289 288 288 288 288 287 287 287 287
315 315 317 313 309 316 321 316 313 313 317 317 313 314 315 314 315 309 303 306 305 299 297 297 298 299 298 299 300 301 301 301 301 301 301 301 301 301 301 300 300 300 299 299 298 298 297 296 295 295 295 294 294 293 293 292 292 292 292 292 291 291 291 291 291 291 291 291 291 290 290 290 290 290 289 289 289 289 289 289 289 289 289 289 289 289 289 288 288 288 288 287 287 287 287 287 287
313 314 312 312 316 318 317 316 319 318 318 320 315 311 313 314 316 314 310 312 310 302 297 297 298 297 298 299 300 301 301 301 301 301 301 301 301 301 301 300 300 299 299 298 297 297 296 295 294 294 293 293 292 292 291 291 291 291 291 291 291 291 291 291 291 291 290 290 290 290 290 290 289 289 289 289 289 289 288 288 288 288 288 288 288 288 288 288 288 288 287 287 287 287 287 287 287
308 309 308 312 317 318 317 316 317 318 319 321 317 314 316 314 314 318 316 311 309 304 300 298 298 298 298 300 301 301 301 301 301 301 301 301 301 301 300 300 300 299 298 298 297 296 295 294 293 293 292 291 291 291 290 290 290 291 291 291 291 291 291 290 290 290 290 290 290 289 289 289 289 289 288 288 288 288 288 288 288 288 288 288 288 288 287 287 287 287 287 287 287 287 287 287 287
310 312 311 312 313 314 316 315 313 317 321 322 320 318 318 315 312 315 314 310 306 304 302 300 298 298 300 300 302 302 302 301 302 302 302 301 301 300 300 299 298 298 297 297 296 296 295 293 292 291 291 290 290 290 290 290 290 290 290 291 291 290 290 290 290 290 290 289 289 289 289 288 288 288 288 288 288 288 288 288 288 288 288 288 287 287 287 287 287 286 286 286 286 286 286 286 286
312 313 313 313 313 314 316 315 312 314 317 319 319 318 317 315 309 309 310 308 304 302 301 300 298 299 300 301 302 302 302 302 302 302 302 301 301 300 300 299 298 298 297 296 296 295 294 292 291 290 290 290 290 290 290 290 290 291 291 291 291 291 290 290 290 290 289 289 289 288 288 288 288 288 288 288 288 288 288 288 288 288 287 287 287 287 287 286 286 286 286 286 286 286 286 286 286
Wind_Speed
3 2 1 0 1 1 2 2 2 3 3 2 1 0 1 2 1 2 2 2 1 2 2 2 2 5 1 0 2 3 3 2 2 2 1 3 7 7 7 4 2 2 3 8 11 15 17 17 16 15 14 14 14 13 13 11 10 9 8 8 8 7 7 6 4 4 4 3 2 2 2 3 3 4 3 3 3 3 3 3 2 1 1 2 1 0 2 3 2 1 2 3 4 5 5 3 3
4 3 3 2 2 1 0 3 2 2 4 3 1 1 2 2 1 2 3 2 1 2 2 1 3 4 3 2 2 2 2 2 2 1 1 4 6 6 6 4 2 2 2 6 9 13 16 17 17 16 15 14 13 13 13 11 10 9 8 9 8 8 7 7 4 5 5 4 3 3 2 2 2 2 2 2 2 4 4 3 2 1 1 1 1 1 2 2 2 1 2 2 4 5 5 4 3
5 5 4 2 4 4 3 4 2 1 4 3 1 2 1 1 2 5 4 2 3 4 2 1 2 3 2 2 2 0 1 2 3 2 2 4 4 5 6 5 3 1 1 4 7 10 14 16 17 16 16 15 14 13 13 12 9 8 8 8 8 7 7 6 5 5 6 5 5 4 4 4 3 1 0 1 3 4 5 4 2 0 2 1 1 1 1 2 2 2 1 2 3 5 5 5 5
6 5 5 2 3 4 3 3 2 3 3 2 1 2 2 2 4 5 4 4 3 2 1 1 0 1 1 2 2 1 3 3 2 2 2 4 4 5 6 6 4 2 1 3 5 8 11 13 15 16 16 15 14 14 13 12 10 9 8 7 7 7 7 6 5 6 6 6 5 6 6 5 4 3 2 2 4 5 5 5 3 1 2 2 2 2 2 2 2 2 2 2 3 4 5 6 6
7 6 5 1 2 2 2 3 2 3 2 3 2 1 3 4 4 5 6 5 1 2 3 3 1 1 1 1 1 1 3 4 4 3 2 4 4 5 7 6 5 3 2 2 4 6 8 11 13 14 15 14 14 14 13 12 10 9 8 7 7 7 7 7 6 6 7 7 6 7 7 6 5 4 3 3 4 6 6 6 3 2 2 2 3 3 3 3 3 3 3 4 4 6 7 7 8
9 7 6 5 4 3 3 3 3 3 3 4 3 2 4 4 5 6 8 4 3 3 3 3 2 2 1 1 2 1 3 4 5 4 2 3 3 5 6 6 6 4 3 1 2 4 7 9 11 13 13 13 14 14 13 12 11 10 8 8 7 7 6 7 7 7 7 7 7 7 7 7 7 5 5 4 5 6 7 7 3 2 3 4 4 4 5 5 5 4 4 4 6 7 9 10 12
8 5 4 5 5 4 3 3 3 2 2 3 2 3 4 5 5 6 6 3 3 4 3 3 2 2 1 2 3 2 5 5 7 5 2 1 1 4 5 6 6 5 4 1 1 3 5 7 9 11 12 13 13 13 13 12 11 11 9 8 8 7 7 6 6 6 7 7 7 7 8 8 7 6 5 4 5 7 8 6 2 2 3 5 5 5 5 5 8 9 8 7 7 9 11 13 16
8 4 2 4 3 4 3 3 2 2 1 3 3 4 5 6 4 4 3 2 2 3 3 2 2 2 1 5 4 3 7 7 8 6 2 1 1 3 4 6 6 7 6 3 0 3 4 6 8 10 11 12 13 13 12 11 11 11 10 9 8 7 7 7 6 6 6 6 6 6 7 8 7 6 5 5 6 7 7 4 1 2 3 4 5 6 6 6 10 13 12 10 10 12 12 14 14
7 3 2 4 2 3 2 1 1 2 2 3 4 5 4 4 2 2 2 2 2 3 4 2 1 2 3 5 3 5 7 9 12 9 4 2 1 2 3 4 5 7 8 6 2 1 3 5 6 8 10 11 13 13 12 11 11 11 10 9 8 8 8 7 7 7 6 6 6 6 6 7 6 6 5 5 6 6 5 3 2 2 3 4 5 7 7 8 11 14 14 14 13 13 12 10 9
6 4 3 4 3 3 2 0 0 1 3 4 5 5 3 2 2 2 2 2 2 3 4 3 0 2 4 3 3 6 7 10 13 12 8 5 2 2 3 3 3 5 8 8 4 1 2 4 5 7 9 10 12 13 12 11 11 11 10 10 9 9 8 8 7 7 7 6 7 7 6 6 6 6 6 6 6 5 5 4 4 4 4 5 6 7 7 8 11 13 14 14 13 12 9 7 6
4 5 4 4 3 2 2 2 2 2 4 5 4 2 2 1 1 1 2 3 4 3 4 3 1 3 4 3 4 5 7 10 13 12 11 7 4 3 4 3 3 3 5 8 6 3 2 3 4 6 8 10 11 12 13 12 12 11 11 10 10 10 9 8 7 8 7 6 7 7 7 6 6 6 7 7 7 6 6 5 5 5 5 6 6 7 7 9 11 12 12 12 10 9 6 5 4
1 2 3 3 2 3 3 2 2 4 5 3 1 2 4 2 1 1 2 2 5 5 3 4 3 4 3 3 4 3 4 13 14 13 12 9 5 3 4 4 4 3 2 5 6 4 3 2 4 5 7 9 11 12 13 13 13 12 12 11 11 11 10 9 8 9 8 7 7 7 7 6 7 7 8 8 7 7 7 6 5 5 6 7 7 8 9 10 12 13 12 11 9 7 5 4 3
3 2 4 3 2 2 3 2 2 3 3 1 0 4 6 3 1 2 2 2 5 3 4 5 3 3 2 4 5 3 8 16 15 12 10 8 6 3 3 4 5 6 4 1 3 4 4 3 3 4 6 8 10 12 13 14 14 13 13 12 12 12 11 10 9 8 8 8 8 8 7 7 8 8 8 9 8 8 8 8 8 7 7 8 9 10 11 11 12 13 12 10 9 8 5 4 2
4 3 4 3 0 1 3 1 1 1 0 2 1 5 6 2 3 4 2 3 3 2 5 6 3 2 2 4 6 9 14 16 14 11 8 6 4 2 2 3 4 7 6 3 1 3 4 5 5 4 5 7 9 11 13 14 15 14 14 13 13 13 13 11 10 9 8 9 8 8 8 9 10 9 10 10 10 10 10 10 10 9 9 9 10 10 12 12 12 12 11 10 9 8 6 4 2
5 4 5 3 2 0 2 1 1 4 2 2 1 7 6 3 5 6 3 3 2 5 8 7 4 3 3 4 7 13 16 14 12 9 6 4 2 0 1 2 3 5 8 7 5 4 4 5 6 6 6 6 7 9 12 14 15 15 15 15 14 14 14 12 12 10 10 10 9 9 9 10 11 11 11 11 11 11 11 11 11 11 10 11 11 12 12 12 12 12 11 9 8 7 6 4 2
5 4 4 3 2 1 2 2 1 4 1 3 1 7 5 3 5 5 4 5 5 7 8 6 5 5 7 7 8 14 15 13 11 8 6 4 2 2 1 1 2 4 7 9 8 6 6 6 7 7 7 7 7 7 10 13 14 15 15 15 15 16 16 14 12 12 11 11 10 10 11 11 11 11 12 12 12 12 12 13 12 12 12 12 13 13 13 13 13 12 11 9 7 7 6 4 3
4 3 4 3 2 1 3 4 2 3 3 4 2 7 4 1 4 5 7 8 6 7 8 8 7 7 8 8 10 15 14 13 10 8 6 4 4 4 4 4 4 5 7 8 9 9 8 7 7 8 9 8 8 7 8 11 13 15 15 16 16 16 16 14 13 14 14 12 12 11 11 12 12 12 12 13 13 13 14 15 13 13 13 13 14 16 15 14 14 13 11 8 6 6 6 5 4
3 2 3 2 2 1 4 6 5 4 1 3 5 7 3 2 5 7 6 5 9 11 10 8 3 1 4 8 12 14 12 10 9 7 5 4 4 5 5 6 6 7 7 8 9 9 9 9 9 9 9 9 9 9 8 9 11 14 15 16 16 16 16 15 15 15 15 13 12 12 12 13 13 13 13 13 14 13 14 15 15 14 14 14 15 16 17 15 14 12 10 8 5 5 6 6 5
3 3 3 1 4 3 4 6 5 3 2 4 6 6 2 4 6 6 4 7 12 12 10 6 2 1 6 10 10 9 7 7 6 4 4 3 3 4 5 6 7 7 7 8 9 9 10 10 10 10 10 10 10 10 9 8 9 11 13 14 15 16 15 16 16 15 15 15 14 13 13 14 14 13 14 14 14 14 14 17 18 15 14 15 14 15 17 16 15 12 9 9 6 5 6 6 6
2 3 2 3 5 3 4 4 3 3 4 6 5 4 5 5 5 4 3 9 9 5 6 5 5 12 13 11 8 6 5 5 5 5 4 5 4 4 3 4 5 6 6 7 8 9 10 10 10 10 10 11 10 10 8 8 8 8 10 11 14 16 17 16 16 16 15 16 17 15 15 14 14 14 15 16 15 14 14 15 16 15 14 13 13 15 17 17 16 14 10 9 7 5 6 6 7
1 3 3 4 3 1 2 2 2 3 4 6 5 5 6 5 4 4 2 5 5 2 3 5 10 16 12 8 6 5 5 5 6 7 8 7 7 7 6 5 4 4 4 5 6 8 10 10 11 11 10 10 10 9 8 7 7 7 8 9 10 13 16 15 14 15 14 16 17 15 16 16 15 15 15 16 16 15 15 15 16 16 15 14 15 16 17 17 17 16 13 12 10 6 6 6 7
1 1 3 4 4 1 1 0 2 3 4 6 6 5 6 6 6 5 3 3 3 4 8 10 12 10 6 5 4 4 5 6 7 7 8 8 8 7 6 6 5 5 5 6 7 8 9 10 11 11 10 10 10 9 8 7 6 7 7 7 8 9 10 10 11 15 16 17 17 15 16 16 16 16 17 16 15 15 15 16 15 16 17 16 15 16 17 17 18 17 16 17 12 8 8 7 7
0 1 1 2 4 3 3 3 4 5 6 7 8 8 8 8 6 4 2 3 6 8 10 9 6 3 1 1 1 2 5 6 6 8 9 10 9 7 6 6 6 7 8 9 10 9 9 9 9 11 11 11 10 10 9 7 5 5 5 5 6 6 7 10 9 12 13 14 16 18 18 18 16 15 17 17 15 15 13 14 15 16 17 18 16 15 16 17 19 18 18 18 14 13 12 9 8
2 1 1 1 3 4 5 6 9 11 11 11 10 10 9 7 5 3 4 2 3 3 2 1 1 2 2 2 2 5 6 6 7 8 9 11 12 11 10 9 9 9 9 10 10 9 9 8 7 10 11 12 11 11 10 8 5 4 3 3 2 4 10 12 9 8 14 16 15 17 18 20 18 14 16 15 15 17 15 17 18 15 14 17 17 15 16 18 18 18 20 20 17 19 17 12 11
3 1 2 2 4 7 9 11 14 14 13 11 9 10 9 5 4 2 5 3 1 2 4 3 4 3 2 3 6 6 6 6 6 7 8 9 11 11 10 9 9 8 8 8 8 8 8 7 4 7 10 12 11 10 9 8 7 4 4 3 1 3 8 9 9 8 12 15 14 15 16 17 17 17 19 16 14 17 17 18 18 13 12 15 16 16 18 18 16 18 20 20 20 23 20 16 14
2 2 3 4 7 11 12 13 12 11 11 9 7 8 5 0 2 4 6 3 4 4 5 4 3 0 3 5 6 6 6 6 6 7 8 8 7 7 7 7 8 7 8 8 8 7 7 7 3 4 8 11 10 9 9 8 8 6 4 3 2 3 4 7 10 9 10 13 12 14 15 15 15 17 20 17 15 16 16 16 16 14 15 16 16 18 21 20 18 17 16 18 20 22 21 19 16
1 1 5 7 10 12 12 12 13 11 11 8 6 5 2 3 3 3 4 4 5 4 4 3 0 2 4 4 5 6 7 7 8 8 6 5 4 5 6 7 8 8 9 8 8 8 7 7 4 1 6 9 9 9 9 9 8 7 5 3 3 5 5 6 7 9 12 13 12 12 12 13 14 16 18 18 17 16 14 12 13 15 17 16 16 18 19 20 20 17 16 18 19 19 21 20 17
1 3 6 9 11 12 10 9 9 5 4 3 4 4 1 3 3 3 5 6 5 2 2 1 1 2 4 3 4 5 6 8 9 8 6 5 6 7 8 8 9 10 10 9 9 9 7 5 4 2 3 7 9 9 9 9 9 8 7 5 4 5 5 5 4 6 10 11 11 12 12 12 11 12 13 14 14 15 15 13 11 11 13 12 13 16 17 17 17 17 18 18 17 18 18 17 18
1 4 4 8 9 8 6 5 3 1 1 1 0 2 4 3 4 6 5 3 2 1 2 2 3 4 4 3 4 4 6 7 7 8 8 9 9 9 9 10 11 10 11 11 10 8 6 5 4 3 3 5 7 8 9 9 9 9 8 7 6 5 4 5 4 4 5 7 8 9 10 12 10 7 8 9 10 11 12 12 11 11 13 12 10 12 14 15 15 17 16 15 16 17 15 16 18
2 3 2 5 7 5 4 5 3 1 1 0 1 2 4 1 4 6 6 1 3 1 5 5 5 5 4 3 3 4 5 6 6 8 9 9 9 9 10 11 11 11 11 11 9 9 8 7 5 4 4 4 5 6 7 8 8 8 8 8 7 6 5 5 3 3 3 4 6 6 6 9 10 8 6 7 7 7 7 8 10 10 12 13 10 10 12 13 13 14 14 14 15 15 16 19 20
1 1 2 2 2 4 5 5 4 2 1 1 4 1 4 2 2 8 7 1 3 2 7 7 6 6 4 4 3 3 4 6 7 8 8 9 9 9 10 10 11 11 11 11 11 11 10 10 8 7 6 5 5 5 5 6 7 7 7 7 7 6 7 7 3 3 4 4 6 6 6 8 9 8 7 7 7 8 8 8 9 8 8 10 10 10 11 11 11 12 13 14 15 14 16 18 17
2 1 3 2 1 5 6 5 4 2 2 3 5 2 4 3 3 9 7 2 1 5 8 7 6 6 5 4 4 3 4 6 7 7 8 9 9 9 10 10 10 10 11 11 12 11 10 11 10 9 8 7 7 6 6 6 6 6 6 6 7 6 6 7 4 3 3 3 3 5 5 6 5 4 5 7 8 8 8 8 8 9 9 10 11 12 11 11 10 11 12 13 13 13 13 13 13
3 1 3 2 1 3 5 4 4 3 1 3 3 1 4 2 4 10 8 4 3 8 9 7 7 6 5 4 4 4 5 6 6 8 9 9 10 10 11 11 10 10 10 10 10 9 9 10 10 9 10 10 9 8 7 6 6 6 6 5 5 5 3 4 4 3 3 3 3 5 3 3 7 7 4 4 5 6 8 8 9 9 10 10 10 12 12 12 10 11 13 12 11 11 11 11 11
3 1 2 3 2 2 3 3 4 6 2 2 4 0 6 3 7 12 9 5 4 9 9 7 7 6 5 5 5 6 7 7 8 10 11 10 11 11 12 12 12 11 11 10 9 9 10 10 10 10 12 12 12 11 10 9 8 8 7 7 6 6 6 5 4 2 2 4 4 5 5 4 7 8 7 7 7 7 7 7 6 8 10 10 10 12 12 12 12 13 12 12 11 11 13 14 15
3 2 2 2 2 2 3 3 2 4 3 2 3 2 9 6 7 13 10 6 5 10 10 7 7 6 6 6 7 9 9 10 11 12 11 11 12 14 15 15 15 14 14 13 12 11 12 12 12 13 15 15 14 13 11 10 10 9 9 7 7 6 6 6 5 3 2 2 1 2 5 5 5 7 7 8 8 8 8 8 6 8 10 11 11 13 14 14 14 14 13 13 15 16 17 18 18
5 5 4 3 3 3 4 4 3 1 2 4 5 5 10 8 4 9 8 7 8 10 9 8 8 7 8 9 10 12 13 14 15 15 15 16 17 18 19 19 19 19 19 18 17 16 16 16 16 17 17 16 14 12 11 10 9 8 7 5 5 6 5 4 3 2 2 1 2 2 4 5 5 6 6 7 9 9 9 10 9 9 8 8 9 10 12 12 13 13 13 14 15 17 17 17 18
5 5 4 4 4 4 4 3 4 0 2 4 5 5 9 7 3 6 4 5 9 9 8 8 9 9 11 12 14 16 17 18 18 19 20 21 23 23 24 25 25 26 25 25 24 24 23 21 21 21 18 15 13 13 12 11 11 9 8 8 8 8 6 4 3 2 2 1 2 3 4 5 5 6 7 8 9 10 10 10 10 10 10 10 10 9 10 11 12 12 12 12 12 13 15 16 17
4 4 3 3 4 5 4 2 3 1 2 3 1 2 8 4 2 5 4 4 6 5 6 7 8 10 12 14 16 18 20 21 21 23 24 25 26 27 28 29 30 31 31 31 30 30 29 27 27 26 23 21 20 19 18 18 18 16 16 15 13 11 10 9 9 8 5 3 4 4 4 5 6 7 8 9 11 12 12 12 12 12 13 14 14 13 13 14 15 15 15 15 15 14 15 16 17
3 3 3 3 3 3 4 2 3 2 2 3 2 2 7 2 2 4 5 5 5 4 5 6 8 10 11 14 17 19 21 23 24 26 27 28 29 29 30 31 31 32 32 32 32 32 31 30 30 29 27 26 26 24 24 24 23 22 21 20 17 16 15 14 14 13 11 9 8 7 6 6 6 6 6 7 9 11 12 13 13 13 13 15 16 16 16 17 18 18 18 18 18 18 18 19 20
3 3 3 4 2 1 3 3 3 2 0 2 0 3 4 1 2 3 5 6 7 6 6 8 9 10 12 15 18 21 23 25 26 28 28 29 29 29 30 30 30 30 30 30 30 29 29 29 29 28 27 27 27 25 25 24 23 22 21 20 19 19 19 17 15 15 13 12 12 11 10 9 8 8 7 7 7 8 9 10 10 11 12 12 13 15 16 16 17 17 17 18 18 19 19 20 21
3 5 6 4 4 5 5 2 2 2 3 0 1 3 5 1 2 0 3 4 5 5 6 8 9 11 13 16 19 21 24 25 27 28 28 28 28 28 28 28 28 28 28 28 27 27 26 26 26 25 25 25 24 24 23 21 20 19 19 19 18 18 18 16 14 15 14 13 13 13 13 12 11 10 10 9 9 8 8 8 9 9 9 10 10 11 12 12 13 13 14 14 15 16 16 17 18
3 5 10 9 8 7 4 1 2 2 3 2 2 1 4 2 2 3 3 2 2 2 4 7 9 12 14 16 18 21 23 25 26 27 27 27 27 26 26 26 25 26 26 25 24 24 24 23 23 23 23 23 22 21 20 18 17 16 16 15 14 13 14 14 14 15 14 13 14 14 13 13 12 11 11 11 11 11 11 11 10 10 10 10 10 11 10 10 11 11 12 13 13 14 14 14 15
2 5 9 10 7 5 5 4 3 1 3 2 1 3 3 4 3 4 4 3 2 2 3 6 9 12 15 16 18 20 22 24 25 26 26 25 25 24 24 24 24 24 24 23 22 21 21 20 20 20 20 20 19 18 17 14 13 12 11 11 11 10 11 14 15 14 14 14 13 13 12 13 13 12 12 13 13 13 13 13 13 13 13 13 13 13 13 13 14 14 14 14 13 13 13 13 13
3 3 5 7 7 7 6 6 4 2 2 2 2 2 2 3 3 2 5 5 2 3 4 6 11 14 16 17 19 21 23 24 25 25 24 24 23 22 22 22 22 22 21 20 19 18 18 17 17 17 17 17 16 15 12 10 9 9 8 9 10 12 13 15 15 14 14 13 11 12 13 13 13 13 13 14 14 14 14 15 15 15 15 15 16 16 16 16 15 15 15 15 15 15 14 13 13
4 1 6 6 6 5 5 5 3 1 1 3 4 1 1 4 3 1 2 3 4 6 7 8 14 19 19 20 21 22 24 25 25 25 24 22 21 21 20 20 20 20 19 18 17 16 15 14 14 14 14 14 14 12 10 9 9 9 9 9 11 13 14 15 15 14 14 12 11 13 13 13 14 14 14 14 14 15 15 15 15 15 16 16 17 17 17 17 16 16 17 17 17 17 16 15 14
4 7 7 6 6 5 4 4 3 3 1 4 5 3 3 4 4 1 0 3 6 7 6 9 17 21 22 23 24 24 25 25 25 24 23 22 21 20 19 18 18 17 16 15 15 14 12 12 11 11 12 12 11 10 8 9 9 8 9 9 10 13 14 13 13 13 13 11 11 13 13 13 14 14 14 15 15 15 16 16 16 16 17 17 17 17 17 17 18 18 18 17 17 17 17 16 15
9 7 6 6 6 4 3 2 3 3 2 5 5 4 3 3 5 3 4 4 5 7 6 7 15 21 23 24 25 26 26 26 25 24 23 21 20 19 18 17 16 15 14 13 12 11 10 9 8 8 10 10 9 8 7 7 8 7 8 9 10 12 12 11 10 10 11 10 11 12 13 13 13 13 14 14 15 16 16 16 16 17 17 17 17 17 18 18 18 18 18 18 17 17 17 17 16
7 4 4 5 3 3 3 4 3 1 5 5 3 2 2 4 5 4 4 4 4 9 10 11 15 22 27 27 26 26 25 25 25 24 22 21 19 18 17 16 15 13 12 11 10 8 7 7 6 5 8 8 7 7 6 6 7 7 8 9 10 11 10 8 8 9 10 9 11 12 11 12 12 13 14 14 15 16 16 16 16 17 17 17 18 18 18 18 18 18 18 18 18 19 18 18 18
3 4 6 4 1 2 1 2 0 3 5 3 2 1 2 5 6 6 5 5 5 7 10 17 24 28 30 30 28 27 26 26 25 24 22 21 19 18 16 14 13 12 11 9 8 7 6 5 4 3 5 7 7 6 6 6 6 7 7 7 8 9 8 7 7 8 9 9 10 10 10 11 12 13 14 15 16 17 17 17 18 18 18 19 18 18 18 18 19 19 19 19 19 20 20 20 19
4 4 5 4 2 2 2 3 1 3 4 2 2 1 1 4 6 5 5 4 5 5 8 17 27 31 33 32 30 28 27 26 26 24 23 21 19 17 15 14 12 11 10 8 7 6 5 4 3 2 4 7 6 6 6 5 5 6 7 7 8 7 7 7 8 8 9 9 10 11 12 13 13 15 15 16 16 17 17 18 18 19 19 19 19 19 20 20 20 20 20 20 20 20 21 20 20
4 3 4 4 4 4 3 3 3 3 2 2 3 1 4 4 2 2 1 1 2 4 7 14 22 28 31 31 29 28 28 28 26 25 23 21 19 17 15 13 12 10 9 8 7 6 5 4 4 3 4 6 6 6 5 5 5 6 6 6 7 6 6 6 7 8 8 9 10 11 12 14 15 16 17 18 18 18 19 19 20 20 20 20 20 20 20 20 21 21 21 21 20 20 20 20 21
2 2 4 2 3 4 2 3 5 3 1 2 2 3 4 4 1 1 1 1 1 4 8 13 20 25 27 28 30 30 29 29 27 26 24 21 19 17 15 14 12 10 9 8 7 6 5 4 5 4 4 5 6 5 5 5 5 5 5 4 4 4 4 4 5 6 6 7 8 9 11 12 13 14 15 16 17 18 20 20 21 22 22 23 23 23 23 22 22 22 22 22 21 21 21 20 21
2 2 3 4 3 6 4 1 1 3 1 3 2 3 3 1 1 2 2 1 2 4 7 14 21 24 26 29 32 32 31 30 28 26 24 22 20 18 16 14 12 11 9 8 7 6 6 5 5 4 5 5 5 5 4 4 4 3 2 2 2 2 2 3 4 4 5 7 8 9 10 11 11 13 13 14 15 17 18 19 21 22 23 24 25 25 25 25 25 24 24 24 24 23 23 22 23
5 3 5 3 1 4 4 1 2 3 3 4 1 4 3 2 2 2 2 2 5 5 7 11 18 23 26 31 34 34 32 30 28 26 24 22 20 18 17 15 13 11 10 9 8 7 7 6 6 6 6 6 6 5 5 4 4 3 2 2 1 1 2 3 4 5 7 8 9 10 11 12 13 14 15 15 16 17 18 19 20 21 21 22 23 23 24 25 25 25 26 26 26 27 26 26 26
4 4 3 3 3 1 2 2 1 1 3 4 2 3 3 4 4 3 5 9 9 7 6 8 16 24 29 33 36 35 33 31 29 28 25 23 21 19 17 15 14 12 11 10 10 9 9 9 8 8 8 7 7 7 6 5 5 4 2 1 0 2 3 4 6 7 8 8 10 11 13 14 15 16 17 17 18 18 18 19 19 20 20 20 21 21 22 23 24 25 26 27 28 29 29 29 29
3 2 2 2 2 3 2 2 3 3 2 3 3 2 3 5 6 8 12 14 11 10 8 11 19 28 33 36 39 38 36 34 32 29 26 24 22 20 18 16 14 13 12 12 11 10 10 10 10 10 10 9 9 8 8 6 5 4 3 1 1 3 4 5 6 7 8 9 11 13 15 16 17 18 18 19 19 19 19 19 19 19 20 19 20 20 21 23 24 25 26 28 29 30 31 32 32
3 3 4 1 1 2 1 1 2 3 3 2 3 4 4 4 3 8 11 10 11 14 13 14 21 30 36 39 41 40 38 36 32 29 26 24 22 20 18 17 15 15 14 13 12 12 12 13 13 12 11 11 10 9 8 7 5 4 2 2 2 3 4 6 7 9 11 13 15 16 18 19 20 20 21 21 22 22 22 22 22 22 22 22 22 22 23 24 25 26 26 28 29 30 31 33 34
5 5 7 7 5 4 2 4 1 2 2 4 2 6 6 3 2 4 5 4 8 14 13 15 24 33 39 41 42 41 39 35 31 29 27 25 22 20 19 18 18 17 16 15 14 14 15 15 15 14 13 12 11 10 8 7 5 3 2 3 4 5 6 8 10 13 15 17 18 19 20 21 21 22 23 24 24 25 26 26 26 26 26 26 25 25 26 27 27 28 29 29 30 32 32 33 34
Wind_Direction
339 337 352 196 302 298 358 28 94 24 64 93 338 60 243 236 314 286 283 299 276 301 255 266 162 158 186 225 251 255 221 192 172 86 104 323 345 343 347 358 13 28 134 170 186 191 190 192 194 195 195 193 195 197 199 204 210 216 222 231 238 247 263 279 266 242 247 245 230 205 156 136 118 106 101 88 67 52 38 29 41 65 96 107 149 269 334 10 16 343 349 359 360 357 358 12 26
22 43 55 108 53 77 145 34 97 353 50 85 290 183 283 302 324 245 225 208 198 340 325 236 180 207 274 292 293 283 237 249 278 348 16 345 347 346 350 353 348 28 129 161 179 191 192 193 194 199 201 200 202 205 208 212 217 220 225 233 239 246 257 270 259 235 239 234 210 195 186 166 155 139 99 71 47 32 24 19 25 70 130 132 181 259 307 328 356 349 337 348 348 340 341 345 344
36 49 50 96 64 78 117 41 87 63 73 87 296 234 306 309 247 242 228 241 284 326 320 230 217 235 258 325 317 91 16 306 318 343 18 7 360 3 2 358 354 19 125 158 172 188 194 195 195 199 203 206 208 210 214 217 219 218 223 231 237 244 250 257 251 235 237 237 219 204 207 209 214 221 321 8 13 8 6 360 357 43 166 158 196 228 289 296 325 353 344 342 339 327 335 341 332
39 39 30 96 89 69 77 41 114 112 106 137 341 268 261 217 250 261 288 330 312 324 13 356 189 228 255 332 312 196 2 6 26 13 16 13 15 21 15 11 10 19 83 153 167 182 195 199 198 200 203 206 209 212 217 217 217 219 222 226 232 239 244 250 249 236 235 240 229 215 214 221 231 239 266 312 341 351 355 349 341 259 189 169 210 226 257 279 300 323 338 340 326 310 319 331 329
27 24 22 120 124 60 83 72 100 91 150 180 102 279 251 226 254 285 334 4 50 76 27 1 52 339 286 300 284 225 13 29 31 10 349 1 24 34 26 23 23 24 50 138 165 177 191 202 204 204 204 205 209 211 215 218 218 221 222 224 229 233 240 249 250 243 238 240 238 230 223 225 236 245 263 293 325 343 353 346 333 252 197 172 212 231 253 277 285 308 342 338 315 300 302 308 313
19 26 42 90 97 80 108 86 90 90 183 179 113 253 266 242 247 296 337 36 88 46 18 16 27 337 318 330 318 312 5 12 6 358 336 349 28 44 37 35 35 29 32 111 162 173 186 201 207 211 210 208 210 212 213 216 218 222 224 225 228 229 237 245 251 250 244 245 245 243 236 232 239 249 265 295 327 344 351 347 337 237 204 182 209 233 248 270 272 288 320 317 310 304 301 301 302
11 15 43 86 69 52 98 103 140 127 174 188 155 234 271 287 271 302 339 68 71 41 39 29 349 334 83 358 343 13 9 10 4 355 337 345 40 52 46 44 45 37 29 38 165 179 186 197 207 213 215 214 215 217 214 213 216 223 225 224 226 227 234 241 246 246 245 248 247 247 245 242 245 256 270 307 338 349 350 347 336 225 202 191 213 237 245 269 281 288 295 295 298 298 298 298 299
8 5 51 89 40 29 88 106 170 176 169 228 247 240 268 310 304 303 340 59 20 26 25 8 350 15 33 332 339 36 24 29 23 17 26 40 86 54 46 46 51 44 32 24 92 195 197 200 206 212 217 217 220 223 220 216 216 221 224 223 224 226 232 239 241 240 242 243 246 245 245 248 251 260 275 313 337 345 344 341 312 228 193 196 216 238 251 275 291 294 297 300 302 300 299 298 300
13 22 75 86 67 39 51 72 171 237 263 258 255 252 272 317 316 307 334 21 353 348 355 353 28 21 336 331 10 54 46 51 39 36 40 37 79 41 31 35 45 44 32 21 16 218 216 213 211 213 217 218 221 225 225 221 219 221 223 223 225 228 230 235 238 241 242 238 246 244 243 253 250 256 275 302 322 329 326 316 298 258 205 206 222 241 258 278 291 298 306 313 315 313 309 305 308
16 38 95 84 75 60 31 193 200 245 251 266 267 274 285 299 288 289 323 5 353 330 351 6 51 6 338 336 46 55 59 52 33 29 27 19 360 349 350 353 18 34 27 20 15 352 244 228 224 219 220 220 221 224 225 224 224 225 226 226 226 228 231 237 240 243 246 238 242 247 249 253 243 248 270 287 301 309 307 287 278 277 263 250 251 258 270 285 294 304 313 316 317 318 315 317 326
12 39 85 83 72 108 156 195 265 276 272 296 289 310 22 332 314 263 326 2 345 321 348 12 9 348 342 344 48 66 63 34 17 14 13 9 351 326 325 313 311 350 17 21 17 2 322 247 237 230 226 225 223 225 226 223 224 228 231 232 229 228 233 238 242 247 252 243 242 251 255 252 241 244 261 274 285 293 296 284 268 268 272 271 271 275 286 299 308 318 321 318 316 316 318 324 332
31 31 61 90 111 161 172 176 258 290 306 331 26 30 16 348 91 354 344 4 334 334 357 5 350 341 340 356 33 88 36 8 3 359 358 4 354 312 308 293 273 274 325 19 20 1 329 278 247 238 236 232 229 227 228 226 223 225 229 233 232 233 238 238 239 249 256 252 250 254 254 248 238 241 254 265 274 280 285 284 275 265 264 264 269 279 291 305 318 326 327 325 322 315 313 322 333
93 143 76 97 147 150 143 153 258 311 334 318 163 8 354 334 55 6 31 13 329 351 13 350 335 336 324 330 1 21 348 350 352 350 352 1 359 328 297 278 255 248 246 339 17 354 326 300 271 247 241 237 235 232 230 229 227 226 226 230 233 238 243 244 244 248 250 250 252 251 251 244 238 240 246 256 264 269 275 277 277 275 272 271 275 283 290 300 314 326 330 330 330 324 318 320 334
85 143 93 112 83 128 150 136 247 109 53 257 285 3 356 1 30 11 46 39 349 5 347 329 307 315 336 334 353 354 343 340 341 344 350 354 357 3 321 290 257 244 244 249 297 332 320 305 292 276 260 244 239 236 234 232 231 230 226 226 229 237 243 245 246 246 245 245 245 245 247 243 240 240 243 251 258 264 269 270 273 277 279 281 283 287 290 294 306 321 330 331 333 332 324 319 322
78 110 92 109 61 51 177 142 150 125 144 243 360 3 17 74 31 11 35 46 349 326 321 310 296 300 328 339 346 340 331 327 329 329 330 328 321 8 337 322 274 245 242 246 256 285 298 296 291 287 281 269 252 240 237 236 235 233 229 226 225 234 241 243 246 243 241 243 239 238 244 242 239 238 240 244 253 262 265 266 271 275 276 277 282 287 288 290 300 314 326 329 333 334 324 314 309
62 83 81 88 100 176 169 163 138 117 194 238 352 7 38 81 23 19 349 328 306 313 314 302 291 287 310 328 331 323 316 314 315 308 302 290 235 201 217 267 256 241 239 241 248 259 273 282 283 280 278 278 269 251 240 236 237 236 234 231 227 231 238 239 242 246 243 241 237 233 240 244 241 240 241 243 252 259 261 264 266 270 275 276 281 285 287 291 297 307 321 325 329 332 321 301 283
39 66 71 64 128 188 174 182 168 134 257 268 347 7 37 11 4 4 326 312 301 306 309 306 295 292 311 321 314 310 311 310 305 298 290 258 226 210 210 225 223 229 236 240 246 252 260 263 265 269 272 273 271 265 248 237 235 236 236 236 233 233 238 238 237 246 248 244 240 233 234 243 244 242 243 246 251 257 264 267 265 267 274 278 280 283 285 291 295 301 316 319 321 329 318 296 273
31 101 76 55 160 172 172 184 187 158 270 289 331 351 20 337 336 342 329 305 312 315 319 329 322 314 326 311 308 312 315 313 305 294 279 245 230 224 223 228 222 223 225 231 240 246 251 251 250 250 258 265 268 269 262 247 236 234 235 238 239 235 236 238 236 239 245 249 247 240 235 237 241 244 249 251 253 256 262 267 269 268 273 277 278 281 284 288 294 298 313 315 312 328 319 298 275
58 110 70 197 200 209 185 181 188 177 305 293 316 335 325 312 318 340 339 303 320 324 328 358 55 2 331 321 322 325 324 321 322 315 298 289 264 245 235 230 227 229 226 229 234 240 244 243 246 244 243 248 256 264 268 266 250 239 235 236 242 243 241 239 240 238 238 246 248 245 242 238 237 240 246 249 253 256 261 269 273 271 273 279 276 277 282 287 292 293 308 317 308 323 323 306 282
73 95 72 236 218 224 212 201 214 232 291 297 314 315 298 312 312 328 316 301 318 323 323 356 341 326 332 334 339 346 350 1 11 17 9 2 349 327 295 257 240 239 238 241 243 248 251 245 242 241 240 238 242 252 263 273 270 257 244 236 235 242 249 244 243 244 239 245 249 245 244 242 239 239 240 241 245 250 259 269 271 272 271 274 273 275 279 284 291 288 296 311 306 315 320 311 293
131 108 140 204 187 211 219 201 274 271 285 292 301 302 305 326 325 308 305 310 325 6 341 337 319 321 329 331 342 2 12 28 39 43 36 27 12 357 347 336 310 288 275 268 266 263 263 257 245 235 235 234 233 237 247 261 268 266 255 248 238 237 247 249 248 253 255 256 257 258 253 249 246 244 245 244 243 243 246 254 263 272 270 266 269 274 277 280 285 284 294 307 303 313 317 309 297
131 125 164 167 152 202 290 114 325 309 297 294 292 299 307 317 318 300 277 279 296 314 313 309 308 310 322 329 347 14 17 25 32 34 30 24 12 360 354 349 337 324 310 299 297 288 276 266 252 235 223 222 225 223 225 238 250 259 256 254 253 244 242 250 245 242 255 260 262 274 272 263 260 257 254 252 252 250 249 257 260 258 263 269 269 272 274 279 287 287 299 305 299 309 313 304 298
64 274 189 173 189 235 295 302 310 309 302 295 290 295 300 309 320 316 306 278 286 296 297 298 301 300 333 349 355 20 20 17 14 11 8 3 357 350 341 335 329 321 315 311 309 308 300 279 257 235 217 209 213 212 210 216 227 242 254 253 257 260 255 268 255 225 245 264 264 275 277 269 269 274 272 264 263 264 255 259 259 245 259 272 266 273 277 280 293 295 302 302 300 312 311 304 298
119 266 294 298 242 261 297 299 301 300 294 294 295 290 290 303 310 335 26 26 307 291 276 278 117 106 119 134 47 34 24 14 7 3 355 348 346 346 345 339 333 328 322 319 318 323 322 304 265 233 213 204 205 208 204 197 204 211 229 247 236 221 230 255 275 237 238 252 258 270 275 266 262 275 284 277 273 273 258 257 267 260 268 271 259 274 284 280 288 292 299 299 304 314 309 304 301
128 229 300 321 279 289 300 298 297 297 295 297 293 278 281 295 285 351 49 80 123 147 143 116 115 108 82 45 33 32 22 14 7 358 350 347 346 344 344 341 337 333 326 325 334 344 346 336 289 229 208 200 200 204 203 190 190 192 197 219 188 194 203 224 261 259 241 245 256 267 272 267 263 271 278 275 274 280 273 266 275 273 269 268 259 270 277 277 282 284 292 296 304 312 308 304 304
180 206 299 291 291 302 303 297 295 294 293 293 281 279 296 336 145 60 57 102 140 149 150 128 128 305 9 15 12 9 5 3 355 353 351 350 349 339 339 345 347 349 352 356 357 2 12 11 352 223 205 199 196 198 202 192 184 185 187 190 188 244 226 207 229 241 236 240 247 252 258 258 258 267 272 269 271 290 295 277 273 273 268 267 265 267 268 269 273 276 286 297 303 307 306 307 309
207 319 307 287 295 305 301 292 291 289 286 281 254 272 323 131 144 80 57 98 139 153 139 131 182 341 21 15 1 358 352 350 353 358 353 341 349 355 2 6 4 8 10 11 12 18 27 28 36 177 200 198 197 194 198 194 186 180 179 176 183 223 223 192 209 225 228 238 247 246 248 249 250 261 268 269 273 288 298 272 258 274 278 276 274 275 273 269 268 273 287 299 300 298 301 308 310
349 340 308 298 313 312 302 294 294 294 288 283 230 250 24 104 132 103 81 98 139 182 127 121 33 41 48 30 9 360 348 352 355 355 360 2 13 21 25 24 19 19 14 14 19 24 31 34 48 97 177 192 196 197 198 194 188 181 173 173 184 205 200 176 197 222 222 230 243 245 242 242 249 260 263 266 273 280 284 271 261 282 292 288 284 284 283 278 278 285 293 298 298 296 303 309 305
354 17 321 309 339 333 323 342 338 29 359 352 159 290 354 52 114 93 63 95 170 207 124 111 85 80 67 49 18 4 356 356 356 0 18 30 33 33 33 33 31 28 24 23 22 21 29 40 57 88 137 177 191 195 195 188 184 180 171 164 164 174 173 164 177 202 214 218 223 233 230 228 237 246 248 256 269 277 280 275 274 291 292 284 287 289 283 282 286 287 291 300 301 298 300 301 299
321 37 29 322 350 336 337 14 347 2 348 278 93 306 309 355 107 69 38 187 220 95 103 102 95 94 76 62 22 9 2 357 11 25 37 44 44 44 43 44 42 38 38 35 30 31 34 42 57 77 104 148 169 178 183 178 174 170 165 162 157 158 166 167 174 185 206 229 217 217 219 231 246 244 234 243 250 259 264 260 263 274 272 267 276 282 273 276 284 282 281 288 292 296 295 293 295
333 17 31 360 360 284 305 356 340 30 43 193 134 223 272 205 83 33 34 188 225 93 95 94 90 88 75 68 39 10 8 19 36 48 54 57 56 57 56 54 52 49 49 45 43 45 45 48 58 72 89 111 129 142 157 159 162 161 161 163 155 150 162 170 175 185 208 240 228 237 249 249 259 246 231 237 234 234 234 235 246 256 258 259 265 268 265 268 278 281 279 277 277 286 293 294 300
24 354 310 342 138 271 311 355 14 70 52 50 119 211 282 180 90 26 45 104 136 95 93 88 84 82 76 63 51 35 35 49 61 70 72 72 72 70 70 67 63 59 55 53 54 55 58 62 65 73 85 93 103 112 122 136 146 154 160 159 157 159 170 179 173 167 213 232 227 269 261 233 266 272 244 246 243 240 239 241 251 256 254 256 261 263 263 265 269 272 272 274 273 275 282 287 293
1 91 248 272 191 275 324 354 16 35 94 30 65 211 291 158 77 29 58 88 68 94 92 86 83 75 76 66 65 72 75 86 89 90 86 83 82 76 74 73 69 67 64 65 67 67 70 74 76 77 81 85 90 95 98 107 115 124 136 136 141 145 136 156 173 196 263 263 258 311 314 262 296 308 293 277 271 267 265 262 260 258 252 250 260 266 265 264 267 268 265 269 273 274 279 280 281
313 30 234 247 214 225 308 305 351 16 84 38 26 77 264 227 65 32 54 79 66 94 92 87 85 74 76 73 80 90 98 106 100 95 91 85 82 76 73 71 70 73 75 77 77 77 79 78 79 79 83 86 85 89 90 93 103 108 113 114 118 120 110 101 115 161 272 269 262 319 341 318 305 308 313 316 318 313 303 293 274 270 267 261 267 278 279 270 268 271 270 275 275 273 275 275 276
193 173 194 251 243 223 262 260 294 357 23 352 344 295 269 263 55 34 44 70 76 94 95 95 94 88 91 85 88 95 100 103 97 93 92 88 85 82 80 79 79 82 83 84 83 83 84 81 80 81 84 84 80 81 83 87 97 104 109 123 131 124 124 116 104 112 90 78 118 26 9 7 345 328 331 334 336 336 334 332 319 303 292 283 280 280 282 281 280 279 277 281 280 276 274 274 276
166 170 154 180 223 244 238 238 258 314 17 296 273 259 270 275 17 28 39 69 88 100 104 104 102 102 102 99 100 101 102 101 98 98 96 95 94 91 90 89 89 90 89 90 91 90 88 86 84 83 83 81 78 76 75 75 79 89 97 111 127 119 123 135 128 171 169 75 67 32 3 6 349 333 348 353 348 347 343 341 341 340 331 317 303 289 287 294 300 299 294 292 290 289 289 288 287
129 130 138 179 210 259 243 234 289 357 150 262 253 247 267 275 344 8 26 77 84 92 101 102 106 110 110 111 110 108 105 102 102 103 103 100 99 98 97 96 95 95 95 95 95 92 90 90 88 86 86 87 86 83 80 80 77 80 83 79 90 98 88 68 61 122 185 282 323 302 302 316 315 314 325 329 331 333 332 329 328 327 328 328 324 317 313 312 311 308 306 307 307 306 304 302 297
113 136 176 222 212 250 250 223 308 7 171 259 9 286 270 265 15 9 31 73 64 72 97 101 110 116 116 116 112 109 107 107 109 108 107 105 103 102 101 101 100 98 97 96 94 92 91 91 89 88 89 89 87 85 83 82 80 79 78 75 75 82 80 65 59 68 73 44 16 1 336 323 317 312 310 311 315 318 319 319 316 313 312 314 316 317 316 313 310 307 306 307 307 305 302 302 301
126 130 163 243 223 254 280 282 331 21 177 251 19 303 268 251 67 35 52 74 75 95 123 122 127 127 124 120 114 114 113 114 115 112 111 110 107 106 104 101 99 97 96 94 92 91 91 90 88 88 87 84 81 80 77 75 76 76 76 76 77 80 80 73 69 69 67 60 52 45 36 20 3 350 337 327 324 324 326 326 325 322 316 312 312 314 314 312 310 308 307 308 308 306 303 302 303
168 144 166 235 216 197 271 275 311 356 123 239 301 300 276 154 95 55 70 91 94 105 131 137 140 137 129 125 121 120 119 118 117 115 114 112 109 107 103 100 97 95 94 92 91 89 88 87 86 85 83 80 78 76 74 72 73 75 75 77 77 76 77 77 77 77 75 72 70 68 63 56 46 38 31 18 5 355 350 346 343 339 333 327 321 319 319 319 318 316 315 314 313 312 310 308 308
228 196 201 218 200 206 229 263 300 338 8 267 152 319 301 207 180 121 100 111 97 103 133 137 143 142 134 131 128 125 122 120 119 117 115 113 110 106 103 100 98 96 93 91 89 87 86 85 84 83 81 80 78 76 75 74 73 74 74 77 77 79 85 88 85 82 80 75 72 70 66 64 58 54 52 46 40 34 28 22 13 5 359 352 346 343 340 336 334 332 329 325 321 319 318 318 317
271 225 211 212 206 209 214 78 32 21 336 287 155 245 293 294 228 201 172 140 109 121 146 147 150 147 143 139 134 130 126 124 122 120 118 114 111 108 105 103 100 97 93 89 88 85 84 83 82 81 80 78 77 76 76 75 75 77 79 85 90 90 93 91 82 78 76 71 69 68 66 65 60 56 55 51 48 45 42 39 34 29 23 18 14 8 3 360 356 351 347 344 340 338 335 331 327
272 243 207 202 191 175 164 142 121 143 246 279 112 176 244 311 285 198 169 154 167 182 172 172 166 157 154 149 141 137 132 129 126 122 119 116 113 111 108 104 101 97 94 91 88 87 85 84 82 81 80 79 79 80 82 82 84 90 92 95 98 89 80 82 80 78 76 74 74 73 69 67 62 58 55 52 49 46 42 40 36 33 30 29 26 20 17 17 13 9 5 0 356 352 346 339 335
234 252 158 161 165 172 172 159 168 221 250 315 358 146 197 288 276 202 158 152 183 205 196 196 182 169 164 157 149 144 138 133 130 125 123 120 118 115 111 106 103 98 96 94 91 89 86 84 83 82 82 83 84 87 91 92 88 88 86 80 79 75 73 79 84 81 79 78 75 72 67 63 59 54 52 50 47 44 40 37 34 30 28 26 24 22 22 22 18 16 12 10 7 3 0 357 348
238 171 109 131 148 156 148 141 170 302 343 286 302 78 212 262 268 339 137 184 228 213 200 204 192 180 172 166 158 151 145 139 135 132 130 127 124 119 114 109 105 102 100 98 95 91 86 83 80 80 80 81 83 84 82 79 71 66 66 60 64 73 76 82 86 83 80 75 69 67 62 57 54 49 46 44 41 39 35 32 29 25 23 22 20 19 19 16 14 12 11 11 10 8 7 7 2
178 127 92 81 75 78 91 111 113 46 12 245 246 194 207 269 274 305 91 245 236 208 199 206 195 186 178 172 164 157 152 146 142 139 136 133 129 124 120 116 112 109 106 101 96 93 88 84 79 77 79 78 79 78 70 67 66 59 61 61 66 77 83 86 88 84 78 71 63 62 56 51 47 43 40 37 34 33 30 27 24 21 20 18 15 14 12 10 9 8 8 8 6 6 6 6 6
139 116 76 64 46 47 55 61 87 62 280 250 241 215 208 269 271 219 197 233 201 169 180 204 199 194 186 178 171 163 158 153 148 145 142 139 136 132 128 123 120 116 111 106 101 98 93 90 83 78 82 84 85 85 78 74 75 71 73 75 78 85 88 88 85 79 73 63 54 53 48 43 40 36 34 29 26 26 23 20 18 16 14 11 9 7 5 4 4 3 2 0 359 359 360 360 0
124 92 96 95 16 22 31 2 49 122 250 257 281 290 218 228 260 247 226 244 191 169 179 185 194 197 191 183 176 168 163 158 154 150 148 146 143 140 136 132 127 123 118 114 110 106 103 96 88 81 90 96 98 99 96 92 93 91 87 86 86 87 88 82 72 67 63 53 48 47 41 36 31 27 24 19 17 17 14 10 8 6 4 2 2 1 359 357 356 354 353 352 353 352 352 352 352
95 91 120 119 7 30 359 294 207 223 243 269 301 274 217 231 251 251 232 234 217 197 190 183 185 191 190 184 179 173 168 163 159 156 155 153 150 146 143 139 135 131 128 126 122 119 116 107 96 92 105 110 112 115 111 105 105 100 94 90 85 83 78 67 57 54 52 45 42 37 29 25 20 15 13 10 9 8 4 1 359 357 355 354 353 352 350 348 347 346 345 345 345 345 345 346 347
161 150 143 143 126 121 240 257 262 261 256 301 295 223 220 260 267 249 215 211 213 206 198 190 187 188 187 184 179 176 173 168 165 163 162 159 156 153 151 148 145 143 140 140 139 136 132 128 126 130 129 125 126 125 119 115 113 104 96 86 77 70 58 47 40 37 36 31 26 20 14 12 8 6 6 4 3 0 355 354 352 350 348 347 345 344 343 342 341 340 340 339 339 339 339 339 339
180 171 140 150 156 161 210 216 206 243 258 302 304 229 190 201 249 268 223 276 243 216 206 197 193 191 188 184 182 181 177 173 172 170 167 164 162 161 160 158 157 157 156 156 157 155 153 152 154 159 145 136 136 133 127 123 114 101 89 76 64 54 39 28 22 22 20 14 10 6 1 359 357 355 353 351 349 346 344 343 342 340 340 339 338 337 337 336 336 336 335 335 335 334 333 332 332
201 129 115 169 189 152 150 186 171 171 265 279 242 228 222 192 203 316 31 52 234 226 215 201 199 195 191 190 189 186 182 179 178 176 172 169 168 168 169 168 169 170 169 171 172 169 171 173 171 168 157 147 143 140 134 124 109 94 83 69 51 40 27 14 13 11 6 2 359 353 349 348 345 342 339 336 333 332 331 330 330 330 330 331 331 331 331 331 331 331 331 330 330 330 329 328 327
153 133 177 222 187 115 110 208 82 80 253 256 201 232 285 298 262 322 53 95 209 215 216 206 201 196 194 196 194 189 186 184 183 179 175 174 174 175 176 177 179 180 180 181 184 182 182 188 189 183 178 168 160 155 146 131 117 107 104 94 65 48 28 10 8 2 359 359 353 348 346 342 337 334 331 328 327 325 325 324 324 325 324 325 326 326 326 327 327 327 327 326 326 326 325 326 325
126 181 205 195 128 90 105 202 13 49 249 269 220 223 244 180 237 312 56 235 228 205 204 203 199 197 198 199 196 192 189 188 187 183 181 181 181 181 183 184 185 187 190 192 194 194 192 193 195 196 196 187 178 173 166 158 154 154 154 144 107 38 16 4 3 360 358 355 347 343 340 335 333 332 329 328 327 326 325 324 323 322 321 320 320 320 321 321 322 323 323 323 323 322 322 322 322
123 182 180 115 142 152 103 164 202 198 243 282 281 244 231 195 204 205 198 218 214 193 189 195 195 197 199 200 198 194 192 192 191 188 186 186 186 188 189 190 192 193 196 199 198 200 200 199 199 198 198 194 187 184 180 178 178 178 183 186 286 353 360 358 357 354 348 341 334 331 330 328 328 327 326 325 324 324 323 322 321 320 319 318 317 317 316 317 317 318 318 319 319 319 319 319 319
67 102 116 76 147 169 154 159 170 183 221 278 290 272 238 223 202 181 196 207 192 174 185 200 199 196 197 198 197 195 194 195 194 190 188 189 191 194 194 196 200 200 202 203 202 204 205 205 205 202 201 198 193 192 190 190 193 199 216 251 322 350 356 350 344 337 331 327 326 328 329 329 329 328 328 327 326 325 324 323 323 322 321 320 318 317 316 316 316 316 316 316 316 316 316 316 316
123 134 160 178 121 123 189 210 122 139 179 212 283 282 259 243 203 184 199 205 184 180 188 195 197 196 197 199 197 195 196 195 193 190 190 192 193 196 198 199 202 203 205 205 205 208 208 207 206 202 202 201 199 198 198 201 207 216 241 291 323 334 331 326 326 328 329 332 333 333 333 332 331 330 329 328 327 327 327 326 326 325 324 323 321 319 318 317 316 315 315 314 314 314 313 313 313
161 177 181 182 171 131 178 245 184 112 184 180 209 272 265 238 199 201 212 212 195 195 190 184 191 196 199 200 198 197 196 194 191 191 193 194 195 198 201 202 205 207 209 208 209 211 210 208 205 203 202 203 205 208 208 211 219 233 268 287 296 306 315 321 328 333 336 336 334 332 331 330 330 328 327 327 326 326 326 325 325 325 325 324 322 321 320 319 318 317 316 316 315 314 313 312 311